Location: *
(49.4547°N, 7.9131°E)
Time: 04:43:02
(UTC+00:00)

Cosmos 2084 Rocket - Pass Details

Date: 22 September 2019
Orbit: 571 x 610 km, 62.8° (Epoch: 15 October)

Event Time Altitude Azimuth Distance (km) Brightness Sun altitude
Rises 19:24:33 0° 227° (SW) 2,858 7.3 -19.3°
Reaches altitude 10° 19:26:49 10° 230° (SW) 1,960 6.4 -19.7°
Maximum altitude 19:31:15 73° 315° (NW) 641 3.7 -20.3°
Enters shadow 19:35:36 11° 41° (NE) 1,926 5.9 -20.9°
